GW1008 Weather Reports


Display with metric or nautical units.
time (UTC)temp
F
wind
direction
speed
MPH
gust
MPH
rain 1hr
in
rain 24hr
in
rain mn
in
humidity
%
barometer
mb
20260505002510 40 0 0.0 0.0 0.00 0.02 0.00 84 1013.5
20260505002008 41 0 0.0 0.0 0.00 0.02 0.00 84 1013.5
20260505001527 41 0 0.0 0.0 0.00 0.02 0.00 84 1013.5
20260505001010 41 0 0.0 0.0 0.00 0.02 0.00 84 1013.4
20260505000509 41 0 0.0 0.0 0.00 0.02 0.00 84 1013.4
20260505000031 41 0 0.0 0.0 0.00 0.02 0.00 84 1013.5
20260504235507 41 0 0.0 0.0 0.00 0.02 0.00 84 1013.6
20260504235010 41 0 0.0 0.0 0.00 0.02 0.00 85 1013.6
20260504234528 42 0 0.0 0.0 0.00 0.02 0.00 84 1013.7
20260504234008 42 0 0.0 0.0 0.00 0.02 0.00 83 1013.6
20260504233511 42 0 0.0 0.0 0.00 0.02 0.00 84 1013.6
20260504233032 42 0 0.0 0.0 0.00 0.02 0.00 83 1013.7
20260504232508 42 0 0.0 0.0 0.00 0.02 0.00 83 1013.6
20260504232011 42 0 0.0 0.0 0.00 0.02 0.00 83 1013.8
20260504231527 42 0 0.0 0.0 0.00 0.02 0.00 83 1013.7
20260504231007 43 0 0.0 0.0 0.00 0.02 0.00 83 1013.6
20260504230507 43 0 0.0 0.0 0.00 0.02 0.00 83 1013.6
20260504230027 43 0 0.0 0.0 0.00 0.02 0.00 83 1013.6
20260504225510 43 0 0.0 0.0 0.00 0.02 0.02 82 1013.5
20260504225009 43 0 0.0 0.0 0.00 0.02 0.02 82 1013.6
20260504224529 43 0 0.0 0.0 0.00 0.02 0.02 82 1013.6
20260504224008 44 0 0.0 0.0 0.01 0.02 0.02 81 1013.7
20260504223510 44 0 0.0 0.0 0.01 0.02 0.02 81 1013.7
20260504223030 44 0 0.0 0.0 0.01 0.02 0.02 81 1013.7
20260504222513 44 0 0.0 0.0 0.01 0.02 0.02 81 1013.6
20260504222016 45 0 0.0 0.0 0.01 0.02 0.02 80 1013.6
20260504221534 45 0 0.0 3.0 0.01 0.02 0.02 81 1013.6
20260504221007 45 0 0.0 3.0 0.01 0.02 0.02 81 1013.5
20260504220509 45 0 0.0 1.0 0.01 0.02 0.02 81 1013.7
20260504220028 45 0 0.0 3.0 0.01 0.02 0.02 81 1013.7
20260504215510 46 0 0.0 6.0 0.01 0.02 0.02 81 1013.8
20260504215014 46 275 0.0 6.0 0.01 0.02 0.02 81 1013.8
20260504214528 46 0 0.0 11.0 0.01 0.02 0.02 82 1013.7
20260504214013 46 0 1.0 11.0 0.00 0.01 0.01 81 1013.7
20260504213511 46 0 0.0 7.0 0.00 0.01 0.01 82 1013.8
20260504213045 45 0 0.0 2.0 0.00 0.01 0.01 82 1013.9
20260504212511 45 0 0.0 2.0 0.00 0.01 0.01 82 1013.8
20260504212012 45 0 0.0 2.0 0.00 0.01 0.01 81 1013.9
20260504211525 46 0 0.0 2.0 0.00 0.01 0.01 81 1013.9
20260504211012 46 0 0.0 2.0 0.00 0.01 0.01 81 1013.9
20260504210512 46 0 0.0 2.0 0.00 0.01 0.01 80 1013.8
20260504210030 46 0 0.0 2.0 0.00 0.01 0.01 80 1013.9
20260504205507 47 0 0.0 2.0 0.00 0.01 0.01 80 1013.9
20260504205010 47 0 0.0 4.0 0.00 0.01 0.01 81 1013.8
20260504204530 47 0 0.0 4.0 0.00 0.01 0.01 81 1013.9
20260504204009 47 0 0.0 1.0 0.00 0.01 0.01 81 1014.0
20260504203513 47 0 0.0 0.0 0.00 0.01 0.01 81 1013.9
20260504203033 48 0 0.0 0.0 0.00 0.01 0.01 81 1013.9
20260504202508 48 0 0.0 0.0 0.00 0.01 0.01 81 1013.9
20260504202009 48 0 0.0 0.0 0.00 0.01 0.01 80 1013.9
20260504201532 48 0 0.0 0.0 0.00 0.01 0.01 80 1013.8
20260504201015 48 0 0.0 0.0 0.00 0.01 0.01 79 1013.8
20260504200511 48 0 0.0 0.0 0.00 0.01 0.01 79 1013.6
20260504200027 48 0 0.0 0.0 0.00 0.01 0.01 78 1013.6
20260504195506 49 0 0.0 0.0 0.00 0.01 0.01 78 1013.6
20260504195011 49 0 0.0 0.0 0.00 0.01 0.01 78 1013.6
20260504194530 49 0 0.0 0.0 0.00 0.01 0.01 77 1013.6
20260504194008 49 0 0.0 1.0 0.00 0.01 0.01 77 1013.6
20260504193508 49 0 0.0 3.0 0.00 0.01 0.01 76 1013.5
20260504193034 49 0 0.0 4.0 0.00 0.01 0.01 76 1013.5
20260504192507 49 0 0.0 4.0 0.00 0.01 0.01 76 1013.4
20260504192011 50 0 0.0 1.0 0.01 0.01 0.01 77 1013.4
20260504191529 50 0 0.0 1.0 0.01 0.01 0.01 76 1013.3
20260504191012 50 0 0.0 1.0 0.01 0.01 0.01 76 1013.3
20260504190511 51 0 0.0 1.0 0.01 0.01 0.01 76 1013.2
20260504190029 51 0 0.0 1.0 0.01 0.01 0.01 76 1013.1
20260504185515 51 0 0.0 1.0 0.01 0.01 0.01 76 1013.0
20260504185016 51 0 0.0 1.0 0.01 0.01 0.01 77 1013.1
20260504184528 51 0 0.0 1.0 0.01 0.01 0.01 77 1013.0
20260504184012 51 0 0.0 1.0 0.01 0.01 0.01 76 1013.1
20260504183514 51 0 0.0 1.0 0.01 0.01 0.01 75 1013.1
20260504183030 51 0 0.0 1.0 0.01 0.01 0.01 74 1012.9
20260504182509 51 0 0.0 1.0 0.01 0.01 0.01 73 1013.0
20260504182010 51 0 0.0 1.0 0.00 0.00 0.00 73 1012.9
20260504181529 52 0 0.0 9.0 0.00 0.00 0.00 73 1013.0
20260504181010 52 0 0.0 9.0 0.00 0.00 0.00 73 1012.9
20260504180512 52 0 0.0 4.0 0.00 0.00 0.00 71 1012.9
20260504180030 53 317 0.0 10.0 0.00 0.00 0.00 69 1012.9
20260504175508 53 0 0.0 12.0 0.00 0.00 0.00 66 1013.0
20260504175014 54 0 0.0 12.0 0.00 0.00 0.00 66 1012.9
20260504174528 54 312 1.0 12.0 0.00 0.00 0.00 63 1012.8
20260504174012 55 0 0.0 8.0 0.00 0.00 0.00 63 1012.8
20260504173513 55 0 0.0 8.0 0.00 0.00 0.00 65 1012.8
20260504173037 56 0 1.0 9.0 0.00 0.00 0.00 63 1012.8
20260504172508 56 0 1.0 10.0 0.00 0.00 0.00 62 1012.7
20260504172012 56 0 1.0 10.0 0.00 0.00 0.00 63 1012.8
20260504171528 57 0 0.0 5.0 0.00 0.00 0.00 63 1012.7
20260504171009 57 298 0.0 11.0 0.00 0.00 0.00 61 1012.7
20260504170509 57 276 0.0 11.0 0.00 0.00 0.00 60 1012.8
20260504151013 56 279 1.0 10.0 0.00 0.00 0.00 59 1013.1
20260504150511 56 296 1.0 10.0 0.00 0.00 0.00 59 1013.1
20260504141014 57 265 0.0 2.0 0.00 0.00 0.00 54 1013.1
20260504140511 57 0 0.0 2.0 0.00 0.00 0.00 58 1013.1
20260504130513 56 275 1.0 10.0 0.00 0.00 0.00 55 1013.0
20260504110507 55 305 0.0 10.0 0.00 0.00 0.00 56 1013.1
20260504100510 53 290 2.0 12.0 0.00 0.00 0.00 60 1013.5
20260504081528 47 281 1.0 9.0 0.00 0.00 0.00 70 1013.5
20260504081013 47 280 2.0 11.0 0.00 0.00 0.00 69 1013.5
20260504080511 47 0 1.0 11.0 0.00 0.00 0.00 69 1013.5
20260504050511 35 0 0.0 0.0 0.00 0.00 0.00 90 1013.5
20260504045510 35 0 0.0 0.0 0.00 0.00 0.00 90 1013.4
20260504045016 35 0 0.0 0.0 0.00 0.00 0.00 90 1013.4
20260504044540 35 0 0.0 0.0 0.00 0.00 0.00 89 1013.5
20260504044010 34 0 0.0 0.0 0.00 0.00 0.00 89 1013.6
20260504043510 34 0 0.0 0.0 0.00 0.00 0.00 89 1013.6
20260504043035 34 0 0.0 0.0 0.00 0.00 0.00 88 1013.6
20260504042508 34 0 0.0 0.0 0.00 0.00 0.00 88 1013.6
20260504042010 34 0 0.0 0.0 0.00 0.00 0.00 88 1013.6
20260504041530 34 0 0.0 0.0 0.00 0.00 0.00 88 1013.6
20260504041011 34 0 0.0 0.0 0.00 0.00 0.00 87 1013.7
20260504040510 34 0 0.0 0.0 0.00 0.00 0.00 87 1013.6
20260504040032 34 0 0.0 0.0 0.00 0.00 0.00 87 1013.7
20260504035516 34 0 0.0 0.0 0.00 0.00 0.00 87 1013.8
20260504035010 35 0 0.0 0.0 0.00 0.00 0.00 87 1013.6
20260504034538 35 0 0.0 0.0 0.00 0.00 0.00 87 1013.8
20260504034011 35 0 0.0 2.0 0.00 0.00 0.00 87 1013.8
20260504033515 35 0 0.0 3.0 0.00 0.00 0.00 88 1013.9
20260504033037 35 0 0.0 3.0 0.00 0.00 0.00 88 1013.9
20260504032511 35 0 0.0 3.0 0.00 0.00 0.00 88 1013.8
20260504032009 35 0 0.0 3.0 0.00 0.00 0.00 88 1013.8
20260504031528 35 133 0.0 2.0 0.00 0.00 0.00 88 1013.7
20260504031008 35 0 0.0 2.0 0.00 0.00 0.00 87 1013.6
20260504030510 35 0 0.0 0.0 0.00 0.00 0.00 86 1013.7
20260504030028 35 0 0.0 0.0 0.00 0.00 0.00 86 1013.6
20260504025508 35 0 0.0 0.0 0.00 0.00 0.00 85 1013.6
20260504025009 36 0 0.0 0.0 0.00 0.00 0.00 85 1013.7
20260504024530 36 0 0.0 0.0 0.00 0.00 0.00 85 1013.7
20260504024012 36 0 0.0 0.0 0.00 0.00 0.00 85 1013.8
20260504023513 37 0 0.0 0.0 0.00 0.00 0.00 85 1013.8
20260504023029 37 0 0.0 0.0 0.00 0.00 0.00 85 1013.8
20260504022513 37 0 0.0 0.0 0.00 0.00 0.00 85 1013.8
20260504022010 37 0 0.0 0.0 0.00 0.00 0.00 84 1013.8
20260504021535 38 0 0.0 0.0 0.00 0.00 0.00 84 1013.7
20260504021009 38 0 0.0 0.0 0.00 0.00 0.00 84 1013.7
20260504020510 38 0 0.0 0.0 0.00 0.00 0.00 84 1013.7
20260504020028 39 0 0.0 0.0 0.00 0.00 0.00 84 1013.8
20260504015508 39 0 0.0 0.0 0.00 0.01 0.00 84 1013.8
20260504015009 39 0 0.0 3.0 0.00 0.01 0.00 85 1013.8
20260504014529 39 0 0.0 3.0 0.00 0.01 0.00 85 1014.0
20260504014010 40 133 1.0 3.0 0.00 0.01 0.00 85 1013.9
20260504013509 40 132 1.0 3.0 0.00 0.01 0.00 84 1013.9
20260504013035 40 0 0.0 0.0 0.00 0.01 0.00 85 1013.9
20260504012511 40 0 0.0 0.0 0.00 0.01 0.00 86 1013.9
20260504012010 41 0 0.0 0.0 0.00 0.01 0.00 86 1014.1
20260504011526 41 0 0.0 0.0 0.00 0.01 0.00 86 1013.9
20260504011011 41 0 0.0 0.0 0.00 0.01 0.00 85 1014.0
20260504010518 41 0 0.0 2.0 0.00 0.01 0.00 85 1014.1
20260504010039 41 0 0.0 2.0 0.00 0.01 0.00 85 1014.0
20260504005508 41 0 0.0 0.0 0.00 0.02 0.00 85 1014.0
20260504005009 41 0 0.0 0.0 0.00 0.02 0.00 85 1013.9
20260504004528 41 0 0.0 0.0 0.00 0.02 0.00 86 1013.9
20260504004010 41 0 0.0 0.0 0.00 0.02 0.00 86 1013.9
20260504003523 41 0 0.0 0.0 0.00 0.02 0.00 86 1013.9
20260504003025 42 0 0.0 0.0 0.00 0.02 0.00 86 1013.9